This demonstration page uses our WeatherBlox Daily Observations layout. Learn more.

Left ArrowRight Arrow

34.74481, -87.66753

Hourly Observations for October 4, 2019

Temp ( °F °C ) Dew Point ( °F °C ) Humidity (%) Winds ( mph kmh ) Pressure ( in mb ) Visibility ( mi km ) Precip ( " mm )
12:53 am 00:53 Clear 76 24.4 66 18.9 72 72 Calm 30.04 1017 10 16 0.00 0.00
1:53 am 01:53 Clear 80 26.7 66 18.9 62 62 N 6 9 30.05 1018 10 16 0.00 0.00
2:53 am 02:53 Clear 79 26.1 67 19.4 67 67 NNE 8 13 30.04 1017 10 16 0.00 0.00
3:53 am 03:53 Clear 77 25 68 20 74 74 NNE 8 13 30.05 1018 10 16 0.00 0.00
4:53 am 04:53 Clear 76 24.4 68 20 77 77 NNE 8 13 30.07 1018 10 16 0.00 0.00
5:53 am 05:53 Clear 75 23.9 68 20 79 79 VRB 7 11 30.09 1019 10 16 0.00 0.00
6:53 am 06:53 Sunny 73 22.8 66 18.9 79 79 N 6 9 30.11 1020 10 16 0.00 0.00
7:53 am 07:53 Sunny 74 23.3 64 17.8 71 71 N 7 11 30.11 1020 10 16 0.00 0.00
8:53 am 08:53 Sunny 76 24.4 63 17.2 64 64 NE 8 13 30.12 1020 10 16 0.00 0.00
9:53 am 09:53 Sunny 80 26.7 64 17.8 58 58 ENE 8 13 30.12 1020 10 16 0.00 0.00
10:53 am 10:53 Sunny 84 28.9 64 17.8 51 51 NE 6 9 30.11 1020 10 16 0.00 0.00
11:53 am 11:53 Sunny 88 31.1 65 18.3 46 46 N 8 13 30.09 1019 10 16 0.00 0.00
12:53 pm 12:53 Sunny 90 32.2 64 17.8 42 42 N 8 13 30.07 1018 10 16 0.00 0.00
1:53 pm 13:53 Sunny 92 33.3 64 17.8 40 40 N 8 13 30.04 1017 10 16 0.00 0.00
2:53 pm 14:53 Sunny 92 33.3 62 16.7 37 37 N 9 15 30.02 1017 10 16 0.00 0.00
3:53 pm 15:53 Sunny 92 33.3 61 16.1 36 36 N 10 17 30.01 1016 10 16 0.00 0.00
4:53 pm 16:53 Sunny 91 32.8 60 15.6 35 35 N 8 13 30.01 1016 10 16 0.00 0.00
5:53 pm 17:53 Sunny 88 31.1 59 15 38 38 NNE 8 13 30.02 1017 10 16 0.00 0.00
6:53 pm 18:53 Clear 84 28.9 55 12.8 37 37 NNE 7 11 30.03 1017 10 16 0.00 0.00
7:53 pm 19:53 Clear 82 27.8 54 12.2 38 38 NNE 8 13 30.04 1017 10 16 0.00 0.00
8:53 pm 20:53 Clear 79 26.1 54 12.2 42 42 NNE 8 13 30.06 1018 10 16 0.00 0.00
9:53 pm 21:53 Clear 77 25 52 11.1 42 42 NNE 9 15 30.07 1018 10 16 0.00 0.00
10:53 pm 22:53 Clear 75 23.9 51 10.6 43 43 NE 7 11 30.06 1018 10 16 0.00 0.00
11:53 pm 23:53 Clear 73 22.8 50 10 44 44 NE 7 11 30.05 1018 10 16 0.00 0.00

Powered by AerisWeather